| time (UTC) | temp F | wind direction | speed MPH | gust MPH | rain 1hr in | rain 24hr in | rain mn in | humidity % | barometer mb |
| 20260901234028 | 85 | 254 | 0.0 | 1.0 | 0.00 | 0.00 | 0.00 | 75 | 1012.1 |
| 20260901233530 | 85 | 254 | 0.0 | 1.0 | 0.00 | 0.00 | 0.00 | 74 | 1012.2 |
| 20260901233047 | 85 | 0 | 0.0 | 1.0 | 0.00 | 0.00 | 0.00 | 74 | 1012.6 |
| 20260901232528 | 85 | 0 | 0.0 | 1.0 | 0.00 | 0.00 | 0.00 | 74 | 1012.5 |
| 20260901232025 | 85 | 0 | 0.0 | 1.0 | 0.00 | 0.00 | 0.00 | 74 | 1012.7 |
| 20260901231605 | 85 | 0 | 0.0 | 1.0 | 0.00 | 0.00 | 0.00 | 73 | 1012.6 |
| 20260901231027 | 86 | 0 | 0.0 | 1.0 | 0.00 | 0.00 | 0.00 | 73 | 1012.4 |
| 20260901230532 | 86 | 0 | 0.0 | 0.0 | 0.00 | 0.00 | 0.00 | 73 | 1012.5 |
| 20260901230044 | 86 | 0 | 0.0 | 1.0 | 0.00 | 0.00 | 0.00 | 72 | 1012.5 |
| 20260901225524 | 87 | 0 | 0.0 | 1.0 | 0.00 | 0.00 | 0.00 | 72 | 1012.4 |
| 20260901225024 | 87 | 0 | 0.0 | 1.0 | 0.00 | 0.00 | 0.00 | 71 | 1012.4 |
| 20260901224552 | 87 | 269 | 0.0 | 2.0 | 0.00 | 0.00 | 0.00 | 70 | 1012.6 |
| 20260901224025 | 87 | 0 | 0.0 | 2.0 | 0.00 | 0.00 | 0.00 | 70 | 1012.6 |
| 20260901223524 | 87 | 251 | 0.0 | 2.0 | 0.00 | 0.00 | 0.00 | 69 | 1012.4 |
| 20260901223047 | 87 | 0 | 1.0 | 4.0 | 0.00 | 0.00 | 0.00 | 69 | 1012.3 |
| 20260901222527 | 87 | 295 | 1.0 | 5.0 | 0.00 | 0.00 | 0.00 | 68 | 1012.3 |
| 20260901222027 | 88 | 261 | 1.0 | 6.0 | 0.00 | 0.00 | 0.00 | 68 | 1012.2 |
| 20260901221609 | 88 | 262 | 1.0 | 6.0 | 0.00 | 0.00 | 0.00 | 67 | 1012.3 |
| 20260901221028 | 88 | 262 | 1.0 | 5.0 | 0.00 | 0.00 | 0.00 | 67 | 1012.1 |
| 20260901220528 | 88 | 267 | 1.0 | 6.0 | 0.00 | 0.00 | 0.00 | 67 | 1012.3 |
| 20260901220100 | 88 | 266 | 0.0 | 6.0 | 0.00 | 0.00 | 0.00 | 67 | 1012.5 |
| 20260901215527 | 88 | 296 | 1.0 | 4.0 | 0.00 | 0.00 | 0.00 | 67 | 1012.7 |
| 20260901215029 | 88 | 256 | 1.0 | 5.0 | 0.00 | 0.00 | 0.00 | 68 | 1012.8 |
| 20260901214555 | 88 | 306 | 0.0 | 6.0 | 0.00 | 0.00 | 0.00 | 68 | 1012.7 |
| 20260901214028 | 88 | 0 | 1.0 | 6.0 | 0.00 | 0.00 | 0.00 | 67 | 1012.6 |
| 20260901213525 | 88 | 241 | 1.0 | 7.0 | 0.00 | 0.00 | 0.00 | 67 | 1012.8 |
| 20260901213105 | 88 | 0 | 2.0 | 10.0 | 0.00 | 0.00 | 0.00 | 67 | 1012.8 |
| 20260901212524 | 88 | 265 | 3.0 | 10.0 | 0.00 | 0.00 | 0.00 | 66 | 1012.7 |
| 20260901212029 | 88 | 286 | 1.0 | 4.0 | 0.00 | 0.00 | 0.00 | 66 | 1012.6 |
| 20260901211547 | 88 | 275 | 0.0 | 4.0 | 0.00 | 0.00 | 0.00 | 67 | 1012.7 |
| 20260901211024 | 88 | 261 | 1.0 | 9.0 | 0.00 | 0.00 | 0.00 | 65 | 1012.7 |
| 20260901210530 | 88 | 280 | 3.0 | 9.0 | 0.00 | 0.00 | 0.00 | 66 | 1012.7 |
| 20260901210046 | 89 | 300 | 2.0 | 9.0 | 0.00 | 0.00 | 0.00 | 65 | 1012.8 |
| 20260901205529 | 89 | 265 | 1.0 | 5.0 | 0.00 | 0.00 | 0.00 | 64 | 1012.9 |
| 20260901205031 | 89 | 321 | 1.0 | 8.0 | 0.00 | 0.00 | 0.00 | 65 | 1012.8 |
| 20260901204602 | 89 | 311 | 1.0 | 8.0 | 0.00 | 0.00 | 0.00 | 65 | 1013.0 |
| 20260901204027 | 88 | 263 | 2.0 | 8.0 | 0.00 | 0.00 | 0.00 | 64 | 1013.0 |
| 20260901203528 | 89 | 279 | 1.0 | 11.0 | 0.00 | 0.00 | 0.00 | 64 | 1013.0 |
| 20260901203054 | 89 | 296 | 4.0 | 11.0 | 0.00 | 0.00 | 0.00 | 64 | 1012.9 |
| 20260901202528 | 89 | 251 | 2.0 | 8.0 | 0.00 | 0.00 | 0.00 | 63 | 1012.9 |
| 20260901202024 | 89 | 271 | 2.0 | 10.0 | 0.00 | 0.00 | 0.00 | 64 | 1012.9 |
| 20260901201552 | 89 | 260 | 3.0 | 10.0 | 0.00 | 0.00 | 0.00 | 62 | 1012.9 |
| 20260901201025 | 89 | 186 | 1.0 | 4.0 | 0.00 | 0.00 | 0.00 | 65 | 1012.8 |
| 20260901200528 | 89 | 271 | 2.0 | 10.0 | 0.00 | 0.00 | 0.00 | 63 | 1012.9 |
| 20260901200111 | 89 | 284 | 3.0 | 10.0 | 0.00 | 0.00 | 0.00 | 62 | 1012.8 |
| 20260901195528 | 89 | 264 | 2.0 | 10.0 | 0.00 | 0.00 | 0.00 | 63 | 1013.0 |
| 20260901195024 | 89 | 275 | 4.0 | 8.0 | 0.00 | 0.00 | 0.00 | 64 | 1013.0 |
| 20260901194603 | 89 | 256 | 0.0 | 5.0 | 0.00 | 0.00 | 0.00 | 64 | 1013.0 |
| 20260901194028 | 89 | 315 | 0.0 | 8.0 | 0.00 | 0.00 | 0.00 | 63 | 1013.1 |
| 20260901193525 | 89 | 294 | 1.0 | 8.0 | 0.00 | 0.00 | 0.00 | 63 | 1013.2 |
| 20260901193051 | 89 | 278 | 2.0 | 8.0 | 0.00 | 0.00 | 0.00 | 60 | 1013.4 |
| 20260901192530 | 89 | 267 | 1.0 | 7.0 | 0.00 | 0.00 | 0.00 | 63 | 1013.3 |
| 20260901192028 | 89 | 261 | 1.0 | 6.0 | 0.00 | 0.00 | 0.00 | 62 | 1013.3 |
| 20260901191623 | 89 | 225 | 2.0 | 5.0 | 0.00 | 0.00 | 0.00 | 62 | 1013.4 |
| 20260901191028 | 89 | 300 | 1.0 | 6.0 | 0.00 | 0.00 | 0.00 | 62 | 1013.4 |
| 20260901190527 | 89 | 244 | 1.0 | 7.0 | 0.00 | 0.00 | 0.00 | 61 | 1013.4 |
| 20260901190051 | 89 | 273 | 0.0 | 8.0 | 0.00 | 0.00 | 0.00 | 64 | 1013.4 |
| 20260901185532 | 89 | 232 | 3.0 | 8.0 | 0.00 | 0.00 | 0.00 | 63 | 1013.5 |
| 20260901185028 | 89 | 267 | 0.0 | 2.0 | 0.00 | 0.00 | 0.00 | 66 | 1013.5 |
| 20260901184554 | 89 | 229 | 0.0 | 8.0 | 0.00 | 0.00 | 0.00 | 65 | 1013.5 |
| 20260901184028 | 88 | 293 | 3.0 | 8.0 | 0.00 | 0.00 | 0.00 | 67 | 1013.6 |
| 20260901183528 | 88 | 238 | 1.0 | 5.0 | 0.00 | 0.00 | 0.00 | 67 | 1013.7 |
| 20260901183052 | 88 | 267 | 1.0 | 6.0 | 0.00 | 0.00 | 0.00 | 69 | 1013.8 |
| 20260901182524 | 87 | 284 | 2.0 | 9.0 | 0.00 | 0.00 | 0.00 | 68 | 1013.8 |
| 20260901182025 | 87 | 248 | 2.0 | 9.0 | 0.00 | 0.00 | 0.00 | 67 | 1013.9 |
| 20260901181556 | 87 | 254 | 2.0 | 9.0 | 0.00 | 0.00 | 0.00 | 69 | 1014.2 |
| 20260901181028 | 87 | 269 | 1.0 | 7.0 | 0.00 | 0.00 | 0.00 | 71 | 1014.1 |
| 20260901180527 | 86 | 298 | 2.0 | 7.0 | 0.00 | 0.00 | 0.00 | 70 | 1014.2 |
| 20260901180045 | 86 | 249 | 2.0 | 7.0 | 0.00 | 0.00 | 0.00 | 70 | 1014.3 |
| 20260901175527 | 86 | 211 | 1.0 | 4.0 | 0.00 | 0.00 | 0.00 | 70 | 1014.1 |
| 20260901175025 | 85 | 286 | 1.0 | 4.0 | 0.00 | 0.00 | 0.00 | 74 | 1014.2 |
| 20260901174554 | 85 | 252 | 1.0 | 2.0 | 0.00 | 0.00 | 0.00 | 74 | 1014.2 |
| 20260901174027 | 85 | 0 | 0.0 | 4.0 | 0.00 | 0.00 | 0.00 | 75 | 1014.2 |
| 20260901173527 | 84 | 250 | 1.0 | 4.0 | 0.00 | 0.00 | 0.00 | 75 | 1014.3 |
| 20260901173046 | 84 | 0 | 0.0 | 3.0 | 0.00 | 0.00 | 0.00 | 76 | 1014.2 |
| 20260901172525 | 84 | 236 | 0.0 | 4.0 | 0.00 | 0.00 | 0.00 | 77 | 1014.2 |
| 20260901172028 | 84 | 284 | 2.0 | 4.0 | 0.00 | 0.00 | 0.00 | 77 | 1014.4 |
| 20260901171554 | 83 | 0 | 1.0 | 3.0 | 0.00 | 0.00 | 0.00 | 78 | 1014.5 |
| 20260901171025 | 83 | 0 | 0.0 | 2.0 | 0.00 | 0.00 | 0.00 | 78 | 1014.6 |
| 20260901170528 | 83 | 277 | 0.0 | 2.0 | 0.00 | 0.00 | 0.00 | 78 | 1014.6 |
| 20260901170052 | 83 | 309 | 0.0 | 2.0 | 0.00 | 0.00 | 0.00 | 78 | 1014.7 |
| 20260901165525 | 83 | 284 | 0.0 | 2.0 | 0.00 | 0.00 | 0.00 | 78 | 1014.7 |
| 20260901165028 | 84 | 276 | 0.0 | 3.0 | 0.00 | 0.00 | 0.00 | 77 | 1015.0 |
| 20260901164605 | 83 | 290 | 0.0 | 3.0 | 0.00 | 0.00 | 0.00 | 78 | 1014.9 |
| 20260901164027 | 83 | 290 | 0.0 | 2.0 | 0.00 | 0.00 | 0.00 | 78 | 1015.0 |
| 20260901163527 | 83 | 234 | 1.0 | 3.0 | 0.00 | 0.00 | 0.00 | 78 | 1014.9 |
| 20260901163048 | 83 | 211 | 1.0 | 3.0 | 0.00 | 0.00 | 0.00 | 77 | 1014.9 |
| 20260901162525 | 83 | 0 | 0.0 | 1.0 | 0.00 | 0.00 | 0.00 | 76 | 1015.0 |
| 20260901162029 | 83 | 267 | 0.0 | 2.0 | 0.00 | 0.00 | 0.00 | 77 | 1015.1 |
| 20260901161548 | 83 | 0 | 1.0 | 2.0 | 0.00 | 0.00 | 0.00 | 77 | 1015.2 |
| 20260901161025 | 83 | 192 | 0.0 | 2.0 | 0.00 | 0.00 | 0.00 | 77 | 1015.1 |
| 20260901160525 | 83 | 263 | 0.0 | 2.0 | 0.00 | 0.00 | 0.00 | 77 | 1015.3 |
| 20260901160105 | 83 | 0 | 0.0 | 1.0 | 0.00 | 0.00 | 0.00 | 77 | 1015.3 |
| 20260901155528 | 83 | 265 | 0.0 | 3.0 | 0.00 | 0.00 | 0.00 | 77 | 1015.3 |
| 20260901155028 | 83 | 0 | 1.0 | 3.0 | 0.00 | 0.00 | 0.00 | 77 | 1015.3 |
| 20260901154551 | 83 | 250 | 0.0 | 2.0 | 0.00 | 0.00 | 0.00 | 76 | 1015.3 |
| 20260901154028 | 83 | 0 | 0.0 | 3.0 | 0.00 | 0.00 | 0.00 | 78 | 1015.4 |
| 20260901153529 | 83 | 350 | 1.0 | 3.0 | 0.00 | 0.00 | 0.00 | 77 | 1015.5 |
| 20260901153059 | 83 | 302 | 1.0 | 6.0 | 0.00 | 0.00 | 0.00 | 77 | 1015.5 |
| 20260901152527 | 83 | 0 | 1.0 | 6.0 | 0.00 | 0.00 | 0.00 | 77 | 1015.4 |
| 20260901152025 | 83 | 294 | 1.0 | 6.0 | 0.00 | 0.00 | 0.00 | 76 | 1015.4 |
| 20260901151547 | 83 | 274 | 2.0 | 4.0 | 0.00 | 0.00 | 0.00 | 78 | 1015.5 |
| 20260901151025 | 83 | 68 | 1.0 | 4.0 | 0.00 | 0.00 | 0.00 | 78 | 1015.4 |
| 20260901150530 | 82 | 333 | 0.0 | 6.0 | 0.00 | 0.00 | 0.00 | 80 | 1015.6 |
| 20260901150051 | 82 | 267 | 1.0 | 7.0 | 0.00 | 0.00 | 0.00 | 79 | 1015.5 |
| 20260901145528 | 82 | 264 | 2.0 | 7.0 | 0.00 | 0.00 | 0.00 | 79 | 1015.5 |
| 20260901145025 | 82 | 298 | 1.0 | 2.0 | 0.00 | 0.00 | 0.00 | 80 | 1015.5 |
| 20260901144549 | 81 | 294 | 0.0 | 2.0 | 0.00 | 0.00 | 0.00 | 80 | 1015.4 |
| 20260901144025 | 81 | 291 | 0.0 | 2.0 | 0.00 | 0.00 | 0.00 | 81 | 1015.3 |
| 20260901143526 | 81 | 324 | 0.0 | 3.0 | 0.00 | 0.00 | 0.00 | 81 | 1015.3 |
| 20260901143052 | 81 | 0 | 0.0 | 3.0 | 0.00 | 0.00 | 0.00 | 81 | 1015.2 |
| 20260901142528 | 81 | 267 | 0.0 | 3.0 | 0.00 | 0.00 | 0.00 | 81 | 1015.2 |
| 20260901142027 | 81 | 282 | 0.0 | 1.0 | 0.00 | 0.00 | 0.00 | 81 | 1015.1 |
| 20260901141549 | 81 | 0 | 0.0 | 6.0 | 0.00 | 0.00 | 0.00 | 81 | 1015.1 |
| 20260901141027 | 81 | 0 | 1.0 | 6.0 | 0.00 | 0.00 | 0.00 | 81 | 1015.0 |
| 20260901140527 | 81 | 0 | 1.0 | 4.0 | 0.00 | 0.00 | 0.00 | 81 | 1014.9 |
| 20260901140127 | 81 | 275 | 1.0 | 4.0 | 0.00 | 0.00 | 0.00 | 81 | 1015.0 |
| 20260901135529 | 81 | 257 | 1.0 | 4.0 | 0.00 | 0.00 | 0.00 | 81 | 1015.0 |
| 20260901135028 | 81 | 323 | 1.0 | 6.0 | 0.00 | 0.00 | 0.00 | 81 | 1015.0 |
| 20260901134542 | 81 | 288 | 1.0 | 6.0 | 0.00 | 0.00 | 0.00 | 82 | 1015.1 |
| 20260901134031 | 81 | 336 | 2.0 | 9.0 | 0.00 | 0.00 | 0.00 | 81 | 1014.9 |
| 20260901133528 | 81 | 257 | 2.0 | 9.0 | 0.00 | 0.00 | 0.00 | 81 | 1015.0 |
| 20260901133050 | 81 | 281 | 2.0 | 6.0 | 0.00 | 0.00 | 0.00 | 81 | 1015.1 |
| 20260901132529 | 81 | 313 | 1.0 | 6.0 | 0.00 | 0.00 | 0.00 | 83 | 1015.1 |
| 20260901132031 | 81 | 275 | 2.0 | 6.0 | 0.00 | 0.00 | 0.00 | 82 | 1015.2 |
| 20260901131549 | 81 | 268 | 2.0 | 8.0 | 0.00 | 0.00 | 0.00 | 82 | 1015.3 |
| 20260901131030 | 80 | 274 | 2.0 | 9.0 | 0.00 | 0.00 | 0.00 | 83 | 1015.3 |
| 20260901130525 | 80 | 240 | 1.0 | 9.0 | 0.00 | 0.00 | 0.00 | 85 | 1015.4 |
| 20260901130053 | 79 | 274 | 2.0 | 9.0 | 0.00 | 0.00 | 0.00 | 85 | 1015.3 |
| 20260901125528 | 79 | 282 | 1.0 | 9.0 | 0.00 | 0.00 | 0.00 | 85 | 1015.4 |
| 20260901125027 | 79 | 240 | 1.0 | 6.0 | 0.00 | 0.00 | 0.00 | 85 | 1015.5 |
| 20260901124553 | 79 | 275 | 2.0 | 9.0 | 0.00 | 0.00 | 0.00 | 87 | 1015.5 |
| 20260901124030 | 78 | 250 | 1.0 | 9.0 | 0.00 | 0.00 | 0.00 | 86 | 1015.5 |
| 20260901123529 | 78 | 261 | 1.0 | 5.0 | 0.00 | 0.00 | 0.00 | 87 | 1015.5 |
| 20260901123046 | 77 | 308 | 1.0 | 5.0 | 0.00 | 0.00 | 0.00 | 89 | 1015.5 |
| 20260901122529 | 77 | 277 | 0.0 | 5.0 | 0.00 | 0.00 | 0.00 | 90 | 1015.6 |
| 20260901122024 | 76 | 261 | 2.0 | 5.0 | 0.00 | 0.00 | 0.00 | 90 | 1015.5 |
| 20260901121544 | 76 | 284 | 1.0 | 4.0 | 0.00 | 0.00 | 0.00 | 91 | 1015.6 |
| 20260901121029 | 75 | 254 | 0.0 | 2.0 | 0.00 | 0.00 | 0.00 | 91 | 1015.7 |
| 20260901120526 | 75 | 248 | 1.0 | 2.0 | 0.00 | 0.00 | 0.00 | 92 | 1015.6 |
| 20260901120047 | 75 | 248 | 0.0 | 2.0 | 0.00 | 0.00 | 0.00 | 93 | 1015.7 |
| 20260901115529 | 74 | 267 | 0.0 | 1.0 | 0.00 | 0.00 | 0.00 | 93 | 1015.7 |
| 20260901115024 | 74 | 0 | 0.0 | 2.0 | 0.00 | 0.00 | 0.00 | 94 | 1015.7 |
| 20260901114548 | 74 | 0 | 0.0 | 2.0 | 0.00 | 0.00 | 0.00 | 94 | 1015.7 |
| 20260901114024 | 73 | 273 | 0.0 | 2.0 | 0.00 | 0.00 | 0.00 | 94 | 1015.7 |
| 20260901113530 | 73 | 288 | 0.0 | 2.0 | 0.00 | 0.00 | 0.00 | 95 | 1015.7 |
| 20260901113045 | 73 | 217 | 0.0 | 2.0 | 0.00 | 0.00 | 0.00 | 95 | 1015.7 |
| 20260901112527 | 73 | 0 | 0.0 | 0.0 | 0.00 | 0.00 | 0.00 | 95 | 1015.8 |
| 20260901112028 | 72 | 0 | 0.0 | 2.0 | 0.00 | 0.00 | 0.00 | 95 | 1015.9 |
| 20260901111552 | 72 | 0 | 0.0 | 2.0 | 0.00 | 0.00 | 0.00 | 95 | 1015.7 |
| 20260901111028 | 72 | 243 | 0.0 | 1.0 | 0.00 | 0.00 | 0.00 | 95 | 1015.6 |
| 20260901110526 | 72 | 0 | 0.0 | 1.0 | 0.00 | 0.00 | 0.00 | 95 | 1015.7 |
| 20260901110049 | 72 | 0 | 0.0 | 1.0 | 0.00 | 0.00 | 0.00 | 95 | 1015.8 |
| 20260901105530 | 72 | 242 | 0.0 | 1.0 | 0.00 | 0.01 | 0.00 | 95 | 1015.7 |
| 20260901105026 | 72 | 242 | 0.0 | 1.0 | 0.00 | 0.01 | 0.00 | 95 | 1015.7 |
| 20260901104547 | 72 | 242 | 0.0 | 1.0 | 0.00 | 0.01 | 0.00 | 95 | 1015.7 |
| 20260901104024 | 72 | 0 | 0.0 | 1.0 | 0.00 | 0.01 | 0.00 | 95 | 1015.6 |
| 20260901103525 | 72 | 0 | 0.0 | 1.0 | 0.00 | 0.01 | 0.00 | 95 | 1015.6 |
| 20260901103046 | 72 | 0 | 0.0 | 1.0 | 0.00 | 0.01 | 0.00 | 95 | 1015.6 |
| 20260901102528 | 72 | 0 | 0.0 | 1.0 | 0.00 | 0.01 | 0.00 | 95 | 1015.5 |
| 20260901102025 | 72 | 0 | 0.0 | 1.0 | 0.00 | 0.01 | 0.00 | 95 | 1015.6 |
| 20260901101559 | 72 | 0 | 0.0 | 1.0 | 0.00 | 0.01 | 0.00 | 95 | 1015.5 |
| 20260901101027 | 72 | 0 | 0.0 | 1.0 | 0.00 | 0.01 | 0.00 | 95 | 1015.4 |
| 20260901100526 | 72 | 0 | 0.0 | 1.0 | 0.00 | 0.01 | 0.00 | 95 | 1015.3 |
| 20260901100051 | 72 | 0 | 0.0 | 1.0 | 0.00 | 0.01 | 0.00 | 95 | 1015.3 |
| 20260901095527 | 72 | 237 | 0.0 | 1.0 | 0.00 | 0.01 | 0.00 | 95 | 1015.3 |
| 20260901095025 | 72 | 0 | 0.0 | 1.0 | 0.00 | 0.01 | 0.00 | 95 | 1015.3 |
| 20260901094547 | 72 | 238 | 0.0 | 1.0 | 0.00 | 0.01 | 0.00 | 95 | 1015.4 |
| 20260901094025 | 72 | 215 | 0.0 | 2.0 | 0.00 | 0.01 | 0.00 | 95 | 1015.4 |
| 20260901093524 | 72 | 0 | 0.0 | 2.0 | 0.00 | 0.01 | 0.00 | 95 | 1015.6 |
| 20260901093046 | 72 | 225 | 0.0 | 1.0 | 0.00 | 0.01 | 0.00 | 95 | 1015.7 |
| 20260901092525 | 72 | 248 | 0.0 | 1.0 | 0.00 | 0.01 | 0.00 | 95 | 1015.8 |
| 20260901092027 | 72 | 0 | 0.0 | 1.0 | 0.00 | 0.01 | 0.00 | 95 | 1015.9 |
| 20260901091556 | 72 | 0 | 0.0 | 1.0 | 0.00 | 0.01 | 0.00 | 95 | 1015.8 |
| 20260901091028 | 72 | 0 | 0.0 | 1.0 | 0.00 | 0.01 | 0.00 | 95 | 1015.8 |
| 20260901090529 | 72 | 0 | 0.0 | 1.0 | 0.00 | 0.01 | 0.00 | 95 | 1015.8 |
| 20260901090046 | 72 | 0 | 0.0 | 1.0 | 0.00 | 0.01 | 0.00 | 95 | 1015.8 |
| 20260901085523 | 72 | 0 | 0.0 | 1.0 | 0.00 | 0.01 | 0.00 | 95 | 1015.8 |
| 20260901085026 | 72 | 0 | 0.0 | 1.0 | 0.00 | 0.01 | 0.00 | 95 | 1015.7 |
| 20260901084544 | 72 | 0 | 0.0 | 1.0 | 0.00 | 0.01 | 0.00 | 95 | 1015.9 |
| 20260901084027 | 72 | 234 | 0.0 | 1.0 | 0.00 | 0.01 | 0.00 | 95 | 1015.8 |
| 20260901083528 | 72 | 0 | 0.0 | 1.0 | 0.00 | 0.01 | 0.00 | 95 | 1015.9 |
| 20260901083054 | 72 | 0 | 0.0 | 1.0 | 0.00 | 0.01 | 0.00 | 95 | 1015.8 |
| 20260901082527 | 72 | 0 | 0.0 | 3.0 | 0.00 | 0.01 | 0.00 | 95 | 1015.8 |
| 20260901082028 | 72 | 224 | 0.0 | 3.0 | 0.00 | 0.01 | 0.00 | 95 | 1015.7 |
| 20260901081555 | 72 | 0 | 0.0 | 3.0 | 0.00 | 0.01 | 0.00 | 95 | 1015.6 |
| 20260901081026 | 72 | 240 | 0.0 | 3.0 | 0.00 | 0.01 | 0.00 | 95 | 1015.7 |
| 20260901080524 | 72 | 272 | 1.0 | 3.0 | 0.00 | 0.01 | 0.00 | 95 | 1015.7 |
| 20260901080139 | 72 | 246 | 0.0 | 3.0 | 0.00 | 0.01 | 0.00 | 95 | 1015.6 |
| 20260901075524 | 72 | 0 | 0.0 | 2.0 | 0.00 | 0.01 | 0.00 | 94 | 1015.7 |
| 20260901075026 | 72 | 0 | 0.0 | 2.0 | 0.00 | 0.01 | 0.00 | 94 | 1015.7 |
| 20260901074546 | 72 | 0 | 0.0 | 1.0 | 0.00 | 0.01 | 0.00 | 94 | 1015.8 |
| 20260901074025 | 72 | 0 | 0.0 | 2.0 | 0.00 | 0.01 | 0.00 | 94 | 1015.7 |
| 20260901073525 | 72 | 0 | 0.0 | 2.0 | 0.00 | 0.01 | 0.00 | 94 | 1015.8 |
| 20260901073045 | 72 | 200 | 0.0 | 2.0 | 0.00 | 0.01 | 0.00 | 94 | 1015.8 |
| 20260901072528 | 72 | 0 | 0.0 | 1.0 | 0.00 | 0.01 | 0.00 | 94 | 1015.9 |
| 20260901072027 | 72 | 0 | 0.0 | 2.0 | 0.00 | 0.01 | 0.00 | 94 | 1016.0 |
| 20260901071547 | 72 | 252 | 0.0 | 2.0 | 0.00 | 0.01 | 0.00 | 94 | 1016.1 |
| 20260901071031 | 72 | 252 | 0.0 | 2.0 | 0.00 | 0.01 | 0.00 | 94 | 1015.9 |
| 20260901070526 | 72 | 259 | 0.0 | 2.0 | 0.00 | 0.01 | 0.00 | 94 | 1015.9 |
| 20260901070051 | 72 | 0 | 0.0 | 2.0 | 0.00 | 0.01 | 0.00 | 94 | 1016.0 |
| 20260901065529 | 72 | 230 | 0.0 | 2.0 | 0.00 | 0.01 | 0.00 | 94 | 1016.1 |
| 20260901065024 | 72 | 106 | 0.0 | 7.0 | 0.00 | 0.01 | 0.00 | 94 | 1016.1 |
| 20260901064546 | 72 | 142 | 0.0 | 7.0 | 0.00 | 0.01 | 0.00 | 94 | 1016.2 |
| 20260901064028 | 72 | 125 | 0.0 | 3.0 | 0.00 | 0.01 | 0.00 | 94 | 1016.2 |
| 20260901063525 | 72 | 238 | 1.0 | 3.0 | 0.00 | 0.01 | 0.00 | 94 | 1016.2 |
| 20260901063055 | 72 | 250 | 0.0 | 3.0 | 0.00 | 0.01 | 0.00 | 93 | 1016.3 |
| 20260901062526 | 72 | 0 | 1.0 | 3.0 | 0.00 | 0.01 | 0.00 | 93 | 1016.2 |
| 20260901062026 | 72 | 224 | 0.0 | 1.0 | 0.00 | 0.01 | 0.00 | 93 | 1016.3 |
| 20260901061600 | 72 | 226 | 0.0 | 1.0 | 0.00 | 0.01 | 0.00 | 93 | 1016.3 |
| 20260901061028 | 72 | 0 | 0.0 | 1.0 | 0.00 | 0.01 | 0.00 | 93 | 1016.4 |
| 20260901060527 | 72 | 243 | 0.0 | 1.0 | 0.00 | 0.01 | 0.00 | 93 | 1016.4 |
| 20260901060050 | 72 | 0 | 0.0 | 2.0 | 0.00 | 0.01 | 0.00 | 93 | 1016.5 |
| 20260901055527 | 72 | 0 | 0.0 | 2.0 | 0.00 | 0.01 | 0.00 | 93 | 1016.5 |
| 20260901055026 | 72 | 209 | 0.0 | 3.0 | 0.00 | 0.01 | 0.00 | 93 | 1016.5 |
| 20260901054820 | 72 | 218 | 0.0 | 4.0 | 0.00 | 0.01 | 0.00 | 93 | 1016.6 |
| 20260901054027 | 72 | 190 | 0.0 | 4.0 | 0.00 | 0.01 | 0.00 | 93 | 1016.6 |
| 20260901053526 | 72 | 172 | 0.0 | 2.0 | 0.00 | 0.01 | 0.00 | 93 | 1016.7 |
| 20260901053049 | 72 | 205 | 0.0 | 1.0 | 0.00 | 0.01 | 0.00 | 93 | 1016.8 |
| 20260901052524 | 72 | 204 | 0.0 | 1.0 | 0.00 | 0.01 | 0.00 | 93 | 1016.9 |
| 20260901052027 | 72 | 0 | 0.0 | 1.0 | 0.00 | 0.01 | 0.00 | 92 | 1017.0 |
| 20260901051545 | 72 | 0 | 0.0 | 1.0 | 0.00 | 0.01 | 0.00 | 92 | 1017.0 |
| 20260901051031 | 72 | 0 | 0.0 | 1.0 | 0.00 | 0.01 | 0.00 | 92 | 1017.1 |
| 20260901050524 | 72 | 0 | 0.0 | 1.0 | 0.00 | 0.01 | 0.00 | 92 | 1017.0 |
| 20260901050052 | 72 | 0 | 0.0 | 1.0 | 0.00 | 0.01 | 0.00 | 92 | 1017.0 |
| 20260901045530 | 72 | 0 | 0.0 | 1.0 | 0.00 | 0.01 | 0.00 | 92 | 1017.0 |
| 20260901045026 | 72 | 0 | 0.0 | 1.0 | 0.00 | 0.01 | 0.00 | 92 | 1017.1 |
| 20260901044606 | 72 | 0 | 0.0 | 0.0 | 0.00 | 0.01 | 0.00 | 92 | 1017.2 |
| 20260901044024 | 72 | 0 | 0.0 | 0.0 | 0.00 | 0.01 | 0.00 | 92 | 1017.3 |
| 20260901043524 | 72 | 0 | 0.0 | 1.0 | 0.00 | 0.01 | 0.00 | 92 | 1017.2 |
| 20260901043046 | 72 | 0 | 0.0 | 1.0 | 0.00 | 0.01 | 0.00 | 92 | 1017.3 |
| 20260901042527 | 72 | 0 | 0.0 | 1.0 | 0.00 | 0.01 | 0.00 | 92 | 1017.3 |
| 20260901042024 | 72 | 209 | 0.0 | 0.0 | 0.00 | 0.01 | 0.00 | 92 | 1017.3 |
| 20260901041545 | 72 | 0 | 0.0 | 0.0 | 0.00 | 0.01 | 0.00 | 91 | 1017.3 |
| 20260901041028 | 72 | 0 | 0.0 | 0.0 | 0.00 | 0.01 | 0.00 | 91 | 1017.4 |
| 20260901040525 | 72 | 0 | 0.0 | 1.0 | 0.00 | 0.01 | 0.00 | 91 | 1017.3 |
| 20260901040103 | 72 | 0 | 0.0 | 1.0 | 0.00 | 0.01 | 0.00 | 91 | 1017.3 |
| 20260901035527 | 72 | 0 | 0.0 | 1.0 | 0.00 | 0.10 | 0.01 | 91 | 1017.3 |
| 20260901035028 | 72 | 0 | 0.0 | 1.0 | 0.00 | 0.10 | 0.01 | 91 | 1017.1 |
| 20260901034547 | 72 | 208 | 0.0 | 1.0 | 0.00 | 0.10 | 0.01 | 91 | 1017.2 |
| 20260901034024 | 72 | 0 | 0.0 | 1.0 | 0.00 | 0.10 | 0.01 | 91 | 1017.3 |
| 20260901033524 | 72 | 0 | 0.0 | 1.0 | 0.00 | 0.10 | 0.01 | 91 | 1017.4 |
| 20260901033046 | 72 | 0 | 0.0 | 1.0 | 0.00 | 0.10 | 0.01 | 91 | 1017.4 |
| 20260901032524 | 72 | 0 | 0.0 | 2.0 | 0.00 | 0.10 | 0.01 | 91 | 1017.4 |
| 20260901032024 | 72 | 223 | 0.0 | 2.0 | 0.00 | 0.10 | 0.01 | 91 | 1017.2 |
| 20260901031545 | 72 | 0 | 0.0 | 3.0 | 0.00 | 0.10 | 0.01 | 91 | 1017.3 |
| 20260901031025 | 72 | 170 | 0.0 | 3.0 | 0.00 | 0.10 | 0.01 | 91 | 1017.2 |
| 20260901030527 | 72 | 221 | 0.0 | 3.0 | 0.00 | 0.10 | 0.01 | 90 | 1017.3 |
| 20260901030050 | 72 | 0 | 0.0 | 2.0 | 0.00 | 0.10 | 0.01 | 90 | 1017.3 |
| 20260901025527 | 72 | 0 | 0.0 | 2.0 | 0.00 | 0.10 | 0.01 | 90 | 1017.1 |
| 20260901025028 | 72 | 226 | 1.0 | 2.0 | 0.00 | 0.10 | 0.01 | 90 | 1017.4 |
| 20260901024557 | 72 | 203 | 0.0 | 2.0 | 0.00 | 0.10 | 0.01 | 90 | 1017.3 |
| 20260901024025 | 72 | 207 | 0.0 | 2.0 | 0.00 | 0.10 | 0.01 | 90 | 1017.4 |
| 20260901023524 | 72 | 215 | 0.0 | 2.0 | 0.00 | 0.10 | 0.01 | 90 | 1017.5 |
| 20260901023049 | 72 | 152 | 0.0 | 2.0 | 0.00 | 0.10 | 0.01 | 90 | 1017.5 |
| 20260901022528 | 73 | 236 | 0.0 | 2.0 | 0.00 | 0.10 | 0.01 | 89 | 1017.7 |
| 20260901022024 | 73 | 164 | 0.0 | 3.0 | 0.00 | 0.10 | 0.01 | 89 | 1017.6 |
| 20260901021604 | 73 | 0 | 0.0 | 3.0 | 0.00 | 0.10 | 0.01 | 89 | 1017.7 |
| 20260901021024 | 73 | 0 | 0.0 | 3.0 | 0.00 | 0.10 | 0.01 | 89 | 1017.6 |
| 20260901020528 | 73 | 0 | 1.0 | 4.0 | 0.00 | 0.10 | 0.01 | 89 | 1017.6 |
| 20260901020049 | 73 | 248 | 1.0 | 5.0 | 0.00 | 0.10 | 0.01 | 89 | 1017.6 |
| 20260901015527 | 73 | 0 | 0.0 | 5.0 | 0.00 | 0.10 | 0.01 | 89 | 1017.5 |
| 20260901015027 | 73 | 203 | 1.0 | 5.0 | 0.00 | 0.10 | 0.01 | 89 | 1017.5 |
| 20260901014552 | 73 | 0 | 0.0 | 2.0 | 0.00 | 0.10 | 0.01 | 89 | 1017.5 |
| 20260901014025 | 73 | 207 | 1.0 | 6.0 | 0.00 | 0.10 | 0.01 | 88 | 1017.6 |
| 20260901013526 | 73 | 0 | 0.0 | 6.0 | 0.00 | 0.10 | 0.01 | 88 | 1017.5 |
| 20260901013046 | 73 | 153 | 0.0 | 2.0 | 0.00 | 0.10 | 0.01 | 88 | 1017.5 |
| 20260901012528 | 73 | 166 | 0.0 | 3.0 | 0.00 | 0.10 | 0.01 | 88 | 1017.5 |
| 20260901012026 | 73 | 0 | 1.0 | 3.0 | 0.00 | 0.10 | 0.01 | 88 | 1017.6 |
| 20260901011552 | 74 | 132 | 0.0 | 3.0 | 0.00 | 0.10 | 0.01 | 88 | 1017.5 |
| 20260901011032 | 74 | 148 | 1.0 | 2.0 | 0.00 | 0.10 | 0.01 | 87 | 1017.6 |
| 20260901010527 | 74 | 0 | 0.0 | 4.0 | 0.00 | 0.10 | 0.01 | 87 | 1017.5 |
| 20260901010052 | 74 | 173 | 0.0 | 4.0 | 0.00 | 0.10 | 0.01 | 87 | 1017.5 |
| 20260901005528 | 74 | 167 | 0.0 | 4.0 | 0.00 | 0.10 | 0.01 | 87 | 1017.5 |
| 20260901005026 | 74 | 153 | 0.0 | 3.0 | 0.00 | 0.10 | 0.01 | 86 | 1017.5 |
| 20260901004549 | 74 | 225 | 0.0 | 4.0 | 0.00 | 0.10 | 0.01 | 86 | 1017.4 |
| 20260901004024 | 74 | 165 | 1.0 | 4.0 | 0.00 | 0.10 | 0.01 | 86 | 1017.4 |
| 20260901003524 | 74 | 113 | 0.0 | 3.0 | 0.00 | 0.10 | 0.01 | 85 | 1017.3 |
| 20260901003047 | 74 | 150 | 1.0 | 4.0 | 0.00 | 0.10 | 0.01 | 85 | 1017.3 |
| 20260901002526 | 75 | 122 | 1.0 | 5.0 | 0.00 | 0.10 | 0.01 | 83 | 1017.2 |
| 20260901002027 | 74 | 144 | 2.0 | 5.0 | 0.00 | 0.10 | 0.01 | 83 | 1017.1 |
| 20260901001552 | 74 | 161 | 0.0 | 3.0 | 0.00 | 0.10 | 0.01 | 81 | 1017.1 |
| 20260901001027 | 74 | 0 | 0.0 | 0.0 | 0.00 | 0.10 | 0.01 | 83 | 1017.0 |
| 20260901000524 | 74 | 0 | 0.0 | 0.0 | 0.00 | 0.10 | 0.01 | 82 | 1016.9 |
| 20260901000051 | 74 | 0 | 0.0 | 0.0 | 0.00 | 0.10 | 0.01 | 82 | 1016.9 |
| 20260831235526 | 74 | 0 | 0.0 | 0.0 | 0.00 | 0.10 | 0.01 | 82 | 1017.0 |
| 20260831235024 | 75 | 0 | 0.0 | 0.0 | 0.00 | 0.10 | 0.01 | 82 | 1017.0 |
| 20260831234544 | 75 | 0 | 0.0 | 0.0 | 0.00 | 0.10 | 0.01 | 81 | 1017.1 |